Regional Weather Roundup
Issued by NWS

Home | Current Version | Previous Version | Text Only | Print | Product List | Glossary On
Versions: 1 2 3 4 5 6 7 8 9 10 11 12 13 14 15 16 17 18 19 20 21 22 23 24 25 26 27
000
ASUS44 KLIX 251913
RWRLA
LOUISIANA WEATHER ROUNDUP
NATIONAL WEATHER SERVICE NEW ORLEANS LA
200 PM CDT SUN JUN 25 2017

NOTE: "FAIR" INDICATES FEW OR NO CLOUDS BELOW 12,000 FEET WITH NO
      SIGNIFICANT WEATHER AND/OR OBSTRUCTIONS TO VISIBILITY.
      SKY/WX - SKY CONDITION AND SIGNIFICANT WEATHER.
      TMP - AIR TEMPERATURE.    DP   - DEWPOINT TEMPERATURE.
      RH  - RELATIVE HUMIDITY.  PRES - PRESSURE.
      HX  - HEAT INDEX.         WCI  - WIND CHILL INDEX.

*  THESE STATIONS ARE NOT NWS OR FAA STATIONS AND ARE NOT UNDER
   NWS QUALITY CONTROL.

LAZ040-048-061>063-065-066-069-252000-
SOUTHEAST LOUISIANA

CITY           SKY/WX    TMP DP  RH WIND       PRES   REMARKS
N.O. INTL ARPT PTSUNNY   85  74  69 N7G17     30.12F
N.O. LAKEFRONT MOSUNNY   85  77  77 N6        30.12F HX  95
N.O. DOWNTOWN*   N/A     85  75  72 N8          N/A
RESERVE*       MOCLDY    87  75  67 NE10      30.12F HX  96
SLIDELL        PTSUNNY   88  72  58 N14       30.11F
BATON ROUGE    PTSUNNY   86  72  62 NE14      30.13F
BOOTHVILLE     CLOUDY    85  79  82 NE7       30.11F HX  98
BELLE CHASSE   TSTM     N/A N/A N/A E8        30.13R
BOGALUSA*      FAIR      87  69  54 NE9       30.15F
GALLIANO*      PTCLDY    87  70  57 NE10      30.12S THUNDER
NEW ROADS*       N/A     84  71  66 E6        30.14F
GONZALES*      MOCLDY    86  74  68 N8        30.10F
HAMMOND*       MOSUNNY   88  68  51 N5        30.13F
HOUMA*         MOSUNNY   77  72  83 E17G23    30.12S
PORT FOURCHON* PTCLDY   N/A N/A N/A VRB5      30.10F

$$

LAZ041-044-053-054-252000-
SOUTHWEST LOUISIANA

CITY           SKY/WX    TMP DP  RH WIND       PRES   REMARKS
LAKE CHARLES   PTSUNNY   88  78  72 N8        30.11F HX 101
LAFAYETTE      MOSUNNY   88  77  69 N13       30.12F HX 100
PATTERSON      PTSUNNY   87  77  72 NE6       30.10F HX  99
SALT POINT       N/A     88  75  65 VRB3      30.08F HX  97
NEW IBERIA     MOSUNNY   89  75  63 N9        30.12F HX  99
CHENAULT AIRPK PTSUNNY   86  75  70 NE9       30.12F HX  95

$$

LAZ027-028-252000-
CENTRAL LOUISIANA

CITY           SKY/WX    TMP DP  RH WIND       PRES   REMARKS
FORT POLK      CLOUDY    81  72  73 N8        30.16F
ALEXANDRIA INT MOSUNNY   80  69  69 NE9       30.15F
ALEXANDRIA     CLOUDY    81  69  67 NE7       30.17F

$$

LAZ001-002-252000-
NORTHWEST LOUISIANA

CITY           SKY/WX    TMP DP  RH WIND       PRES   REMARKS
SHREVEPORT     CLOUDY    80  63  55 E10       30.20F
BARKSDALE AFB  CLOUDY    76  64  66 E7        30.21F
DTN SHREVEPORT CLOUDY    79  63  57 VRB7      30.21F

$$

LAZ014-016-252000-
NORTHEAST LOUISIANA

CITY           SKY/WX    TMP DP  RH WIND       PRES   REMARKS
MONROE         CLOUDY    74  67  78 NE5       30.23F
TALLULAH       CLOUDY    76  68  76 N8        30.21F

$$





USA.gov is the U.S. government's official web portal to all federal, state and local government web resources and services.